Probability
0 0 0 0 0 0 0 0 0 0 0 0 0 0 0 0 0 0 0 0 0 0 0 0 0 0 0 0 0 0 0 0 0 0 0 0 0 0 0 0 0 0 0
0 0 0 0 0 0 0 0 0 0 0 0 0 0 0 0 0 0 0 0 0 0 0 0 0 0 0 0 0 0 0 0 0 0 0 0 0 0 0 0 0 0 0
0 0 0 0 0 0 0 0 0 0 0 0 0 1 0 0 0 0 0 0 0 0 0 0 0 0 0 0 0 0 0 0 0 0 0 0 0 0 0 0 0 0 0
0 0 0 0 0 0 0 0 0 0 0 0 0 0 0 0 0 0 0 0 0 0 0 0 0 0 0 0 0 0 0 0 0 0 0 0 0 0 0 0 0 0 0
0 0 0 0 0 1 0 0 0 0 0 0 0 0 0 0 0 0 0 0 0 0 0 0 0 0 0 0 0 0 0 0 0 0 0 0 0 0 0 0 0 0 1
0 0 0 0 0 0 0 0 0 0 0 0 0 0 0 0 0 0 0 0 0 0 0 0 0 0 0 0 1 1 0 0 0 0 0 0 0 0 0 0 0 0 1
0 0 1 1 1 1 0 0 0 0 0 0 0 0 0 0 0 0 0 0 0 0 0 0 0 0 0 0 1 1 0 0 0 0 0 0 0 0 0 0 0 0 1
1 1 1 2 2 1 0 0 0 0 0 0 0 0 0 0 0 0 0 0 0 0 0 0 0 0 0 0 1 1 0 0 0 0 0 0 0 0 0 0 0 0 0
2 2 1 1 1 1 0 0 0 0 0 0 0 0 0 0 0 0 0 0 0 0 0 0 0 0 0 0 0 0 0 0 0 0 0 0 1 1 0 0 0 0 0
3 3 2 1 0 0 0 0 0 0 0 0 0 0 0 0 0 0 0 0 0 0 0 0 0 0 0 0 0 0 0 0 0 0 0 1 2 2 1 1 0 0 0
3 2 1 1 0 0 0 0 0 0 0 0 0 0 0 0 0 0 0 0 0 0 0 0 0 0 0 0 0 0 0 0 0 0 1 3 5 4 3 2 1 0 0
2 1 0 0 0 0 0 0 0 0 0 0 0 0 0 0 0 0 0 0 0 0 0 0 0 0 0 0 0 0 0 0 0 0 2 4 6 5 4 3 2 1 1
1 0 0 0 0 0 0 0 0 0 0 0 0 0 0 0 0 0 0 0 0 0 0 0 0 0 0 0 0 0 0 0 0 0 1 2 3 4 3 3 3 2 2
0 0 0 0 0 0 0 0 0 0 0 0 0 0 0 0 0 0 0 0 0 0 0 0 0 0 0 0 0 0 0 0 0 0 0 0 1 2 4 4 3 2 1
0 0 0 0 0 0 0 0 0 0 0 0 0 0 0 0 0 0 0 0 0 0 0 0 0 0 0 0 0 0 0 0 0 0 0 0 1 2 4 4 3 1 1
0 0 0 0 0 0 0 0 0 0 0 0 0 0 0 0 0 0 0 0 0 0 0 0 0 0 0 0 0 0 0 0 0 0 1 1 2 3 3 2 1 1 1
0 0 0 0 0 0 0 0 0 0 0 0 0 0 0 0 0 0 0 0 0 0 0 0 0 0 0 0 0 0 0 0 0 0 1 2 2 3 3 1 1 1 0
0 0 0 0 0 0 0 0 0 0 0 0 0 0 0 0 0 0 0 0 0 0 0 0 0 0 0 0 0 0 0 0 0 0 2 2 2 2 2 2 1 0 0
0 0 0 0 0 0 0 0 0 0 0 0 0 0 0 0 0 0 0 0 0 0 0 0 0 0 0 0 0 0 0 0 1 1 2 3 3 1 1 1 1 0 0
0 0 0 0 0 0 0 0 0 0 0 0 0 0 0 0 0 0 0 0 0 0 0 0 0 0 0 0 0 0 0 1 2 2 3 5 5 2 0 0 0 0 0
0 0 0 0 0 0 0 0 0 0 0 0 0 0 0 0 0 0 0 0 0 0 0 0 0 0 0 0 0 0 0 1 2 2 2 3 4 2 1 0 0 0 0
0 0 0 0 0 0 0 0 0 0 0 0 0 0 0 0 0 0 0 0 0 0 0 0 0 0 0 0 0 0 0 0 1 1 1 1 2 3 2 0 0 0 1
0 0 0 0 0 0 0 0 0 0 0 0 0 0 0 0 0 0 0 0 0 0 0 0 0 0 0 0 0 0 0 0 0 0 1 1 3 4 3 1 0 1 2
0 0 0 0 0 0 0 0 0 0 0 0 0 0 0 0 0 0 0 0 0 0 0 0 0 0 0 0 0 0 0 0 0 0 1 2 4 5 4 2 1 2 3
0 0 0 0 0 0 0 0 0 0 0 0 0 0 0 0 0 0 0 0 0 0 0 0 0 0 0 0 0 0 0 0 0 0 0 1 3 4 4 4 4 5 5
0 0 0 0 0 0 0 0 0 0 0 0 0 0 0 0 0 0 0 0 0 0 0 0 0 0 0 0 0 0 0 0 0 0 0 0 1 2 4 6 7 7 6
Wind_Speed
5 7 9 9 10 11 11 11 11 11 11 11 10 10 9 9 9 9 8 8 8 8 7 7 7 6 6 6 6 5 5 5 5 5 4 4 4 4 3 2 2 1 3
7 8 10 10 11 11 11 11 11 11 11 11 10 10 9 9 9 9 8 8 7 7 7 7 6 6 6 5 5 5 5 5 4 4 3 1 3 3 3 2 4 3 2
8 9 10 11 11 11 11 11 11 11 11 11 10 10 9 9 9 8 8 7 7 7 7 6 6 6 5 5 5 5 5 4 4 3 4 1 3 4 3 3 3 3 1
9 9 10 12 12 11 11 12 12 11 11 11 11 10 9 9 9 8 8 7 7 6 6 6 6 6 5 5 5 4 4 4 4 5 3 2 2 6 4 3 3 3 2
10 9 11 11 11 11 11 12 12 11 11 11 10 10 9 9 8 8 8 7 7 7 6 6 6 5 5 5 5 4 4 4 3 4 4 3 2 4 4 3 3 3 3
10 10 12 11 11 11 12 12 12 11 11 10 10 9 8 8 8 8 7 7 7 6 6 6 6 6 5 5 5 5 4 4 4 3 3 3 2 4 3 3 3 3 4
10 10 11 11 11 11 11 11 11 10 10 9 9 8 7 7 7 7 7 6 6 5 6 5 5 5 5 5 5 5 4 4 3 2 2 2 4 4 3 2 3 3 3
10 9 11 11 10 10 11 10 10 9 9 8 7 7 6 7 7 6 6 5 5 5 5 5 5 5 5 5 5 4 4 6 1 2 2 3 5 3 2 2 3 3 2
9 8 8 9 10 10 9 9 9 8 7 7 7 6 6 6 6 6 5 5 5 5 5 5 4 4 4 4 4 4 3 4 4 2 2 3 5 4 2 2 2 2 2
8 8 7 7 7 7 8 9 7 7 6 6 6 6 5 3 4 3 3 6 6 6 5 5 4 4 3 4 4 3 3 5 2 2 2 4 6 4 3 2 2 2 2
7 7 7 7 6 5 5 6 5 6 5 2 4 4 1 2 4 2 8 7 6 6 5 5 4 3 1 2 2 2 4 2 2 2 2 7 6 5 3 3 2 2 2
7 7 6 6 5 5 4 4 2 3 3 3 4 4 3 3 4 4 5 4 4 3 1 3 2 3 5 1 3 4 1 1 1 1 4 6 5 4 3 3 2 2 2
7 6 6 5 5 4 3 3 2 2 2 3 5 4 3 3 2 2 2 1 1 1 1 1 3 1 2 2 2 1 2 2 1 1 4 6 5 4 3 3 2 1 2
6 5 5 4 4 4 4 3 2 2 3 3 4 5 4 3 3 3 2 3 3 2 2 2 2 2 2 2 2 2 1 1 1 1 4 5 4 4 3 2 2 2 1
6 5 4 3 3 3 4 2 2 3 3 4 3 4 5 3 3 3 3 3 3 2 2 2 2 3 3 3 2 3 2 2 2 1 2 4 4 4 3 2 3 2 1
6 5 5 4 3 3 3 2 3 3 2 3 3 4 5 4 3 3 3 3 3 3 3 3 3 2 2 2 2 3 2 2 1 1 2 3 4 4 4 3 3 2 1
6 6 5 4 3 3 3 3 3 2 3 4 3 4 5 4 4 4 3 3 3 3 3 3 3 2 2 1 1 2 2 2 1 1 2 1 2 4 4 4 3 3 2
5 5 5 4 3 4 3 3 2 3 4 3 3 3 5 5 5 4 3 4 4 3 3 3 3 2 2 2 2 2 1 2 1 2 1 1 2 2 4 5 5 4 3
5 5 5 5 4 4 4 3 3 3 3 3 3 4 5 5 5 4 4 4 4 3 3 3 3 3 3 2 2 1 2 2 2 1 2 3 2 2 2 4 4 3 3
5 5 5 5 4 5 3 3 3 3 3 3 3 4 5 4 5 4 3 4 4 3 3 3 3 3 2 2 2 2 2 2 2 3 3 3 3 3 3 2 1 3 4
5 5 5 5 5 4 2 2 2 3 2 3 3 4 4 5 5 4 3 4 4 4 4 4 3 3 2 2 1 1 2 2 3 3 3 3 3 3 3 2 1 1 1
5 5 5 5 5 4 2 2 2 2 2 3 2 3 4 5 5 4 4 3 4 3 3 4 3 3 2 2 3 1 1 3 2 3 2 2 3 3 3 3 2 2 1
5 5 4 4 5 3 3 2 2 2 2 2 2 2 4 4 4 4 5 4 4 3 3 3 3 3 3 2 3 3 2 2 1 2 3 3 3 3 3 3 3 3 2
5 5 5 5 5 4 3 2 2 1 2 2 2 2 2 3 4 4 4 4 4 3 3 3 4 3 3 2 2 2 3 3 2 1 1 3 3 3 3 3 3 3 2
5 5 4 5 4 4 3 3 2 2 2 2 1 2 2 3 3 4 4 3 4 3 3 4 3 3 2 3 2 2 2 1 3 2 1 2 2 2 3 3 2 3 3
5 4 4 4 4 3 3 3 2 2 2 2 1 2 2 2 2 4 3 3 3 3 3 3 3 3 3 3 3 2 2 2 2 2 2 2 2 2 2 2 2 2 2
Wind_Direction
106 102 105 106 109 108 108 108 108 106 103 102 102 102 105 101 96 91 85 79 76 72 70 66 62 60 59 58 53 49 50 49 44 39 35 36 36 28 35 17 303 145 90
114 109 110 109 108 107 106 104 102 100 98 95 95 96 97 95 92 87 82 77 74 70 65 60 57 55 52 50 46 44 41 36 30 25 7 64 70 38 35 25 352 28 59
113 109 111 104 105 105 103 100 97 95 94 93 91 90 89 88 85 81 77 73 69 66 62 55 49 45 44 43 39 38 33 28 17 354 289 313 90 69 34 30 18 21 13
109 107 101 102 101 100 100 99 97 93 90 88 87 85 83 81 79 74 70 66 61 58 54 50 43 38 37 37 34 37 33 25 12 310 289 19 37 64 28 24 17 11 348
106 103 99 99 99 98 97 96 94 91 87 85 82 79 76 74 70 64 61 57 53 50 46 42 37 36 35 36 34 34 29 18 335 299 5 11 24 52 17 15 13 9 358
105 102 99 97 96 96 94 93 92 91 87 84 80 77 71 67 64 59 56 51 44 41 39 35 29 30 32 35 33 28 24 3 289 7 4 359 30 48 13 13 12 16 14
106 102 101 95 94 93 91 89 89 89 86 83 78 73 66 61 54 48 44 42 34 32 33 32 26 26 24 28 29 25 20 336 327 5 358 9 31 23 12 18 21 26 26
107 104 105 99 93 93 92 90 87 86 83 79 72 66 60 56 49 42 38 36 29 26 25 28 28 24 25 25 24 26 14 323 344 9 12 22 28 1 7 22 21 21 28
109 106 105 109 109 103 92 86 85 82 79 75 67 59 53 48 47 43 39 31 22 21 21 23 23 22 25 30 29 24 15 332 317 0 353 32 32 15 28 30 30 23 23
112 110 106 102 105 110 111 96 86 78 71 69 65 57 57 82 81 61 47 41 22 21 22 20 19 23 28 34 30 14 324 275 322 339 353 44 32 17 26 47 42 29 31
114 114 111 108 105 102 97 101 108 102 83 109 106 88 285 34 47 71 47 35 25 26 25 23 19 23 336 127 67 331 276 305 10 335 17 37 18 11 15 42 54 36 26
120 116 113 113 110 105 93 98 84 79 76 46 47 50 27 31 34 20 93 57 36 21 45 40 337 245 258 175 144 225 275 339 316 347 55 35 16 11 11 27 38 36 21
122 117 116 115 108 100 96 77 69 70 69 52 37 45 26 20 26 18 20 92 55 334 6 76 250 326 335 6 336 340 2 341 337 360 61 40 16 11 7 14 22 34 19
117 115 116 115 117 108 94 82 70 63 54 48 38 29 29 22 5 22 10 14 1 16 6 345 338 356 335 329 327 345 24 338 348 1 69 48 16 5 4 9 16 28 39
122 119 116 118 111 106 93 85 76 55 32 49 38 25 31 22 16 19 23 18 5 3 1 348 335 6 345 351 349 349 0 15 356 355 82 78 27 9 6 13 24 27 65
126 125 125 125 110 107 98 86 69 67 61 42 44 30 30 32 23 12 24 20 13 7 360 342 1 352 347 2 0 359 346 2 11 6 19 109 97 53 29 21 25 34 48
128 128 124 119 117 100 84 74 74 70 58 52 45 29 37 34 22 21 14 21 15 8 5 0 12 352 1 5 8 2 15 9 10 32 26 10 98 107 72 41 32 34 35
134 132 128 132 124 103 89 82 80 69 63 66 55 37 37 38 27 18 13 19 17 11 10 13 4 8 23 5 11 15 29 44 22 17 31 44 36 45 93 73 49 42 38
140 139 136 128 118 102 96 99 78 78 73 66 57 44 35 35 25 27 18 11 16 16 16 10 20 6 23 14 17 29 27 41 42 30 35 38 50 39 44 100 98 72 56
145 141 132 125 124 117 116 102 93 84 83 70 57 46 34 27 25 23 22 20 17 21 22 23 34 23 16 9 18 52 55 76 60 42 26 39 36 30 32 32 91 117 101
153 150 137 139 132 129 115 115 109 101 96 84 62 50 38 28 24 26 16 25 12 26 19 19 24 36 25 5 353 87 102 90 65 69 38 26 42 33 30 31 20 20 124
156 159 152 145 138 131 107 91 83 87 83 68 62 51 33 28 23 18 24 25 26 25 26 22 15 357 28 7 337 329 135 131 82 64 57 38 32 35 27 30 33 38 17
163 160 156 150 142 135 135 123 122 124 141 125 91 57 33 27 25 17 18 17 14 18 29 16 9 2 2 17 10 346 345 27 35 86 48 45 36 23 26 25 27 28 34
163 159 161 153 150 146 154 149 128 110 86 68 48 54 56 43 34 22 17 17 19 21 24 16 22 3 352 2 26 4 358 358 320 18 82 50 37 27 22 20 23 31 28
157 159 161 153 149 146 151 134 158 107 84 87 83 69 51 56 38 32 20 20 26 25 22 18 16 7 1 355 358 2 4 333 305 324 352 4 22 29 20 19 18 25 19
151 154 153 151 141 142 154 154 143 105 96 94 71 51 46 59 39 38 19 19 25 25 26 20 22 28 12 8 351 354 344 332 338 333 327 336 356 6 7 19 8 23 19